Torna al catalogo

SCOUT G-1 DEB

AttivoPO
NORAD 21691·DEBRIS·🇺🇸 United States

Lanciato Jun 29, 1991 da Vandenberg Space Force Base

Loading…

Prossimi Passaggi (prossime 24 ore)

TLE

AggiornatoSource: Space-Track

Epoca: Sep 14, 2026, 10:47 UTC

1 21691U 91045E   26257.44988723  .00000947  00000-0  21300-3 0  9994
2 21691  89.8047 252.3504 0013374 184.8332 327.5977 14.55800368853696

Traccia SCOUT G-1 DEB in tempo reale con AllMySat

Download on the App Store